This is the latest recevied weather packets stored in our database for station/object XE2MEM-21. If no packets are shown the sender has not sent any weather packets the latest 10 day(s).
| Time | Temp. | Humidity | Pressure | Rain* | Wind** | Luminosity | Snow |
|---|---|---|---|---|---|---|---|
| 1777660770 | 27.22° C | 100% | 1003.7 hPa | - | - | - | - |
| 1777659870 | 26.67° C | 100% | 1003.9 hPa | - | - | - | - |
| 1777658970 | 26.11° C | 100% | 1003.8 hPa | - | - | - | - |
| 1777658071 | 27.22° C | 100% | 1003.8 hPa | - | - | - | - |
| 1777657168 | 30° C | 100% | 1003.5 hPa | - | - | - | - |
| 1777656268 | 31.11° C | 100% | 1003.8 hPa | - | - | - | - |
| 1777655368 | 33.33° C | 97% | 1003.7 hPa | - | - | - | - |
| 1777654468 | 32.22° C | 100% | 1004 hPa | - | - | - | - |
| 1777653568 | 31.67° C | 100% | 1004.3 hPa | - | - | - | - |
| 1777652668 | 28.89° C | 100% | 1004.6 hPa | - | - | - | - |
| 1777651768 | 28.89° C | 100% | 1004.7 hPa | - | - | - | - |
| 1777650868 | 28.33° C | 100% | 1004.5 hPa | - | - | - | - |
| 1777649968 | 28.33° C | 100% | 1004.4 hPa | - | - | - | - |
| 1777649068 | 27.78° C | 100% | 1004.4 hPa | - | - | - | - |
| 1777648168 | 27.78° C | 100% | 1004.7 hPa | - | - | - | - |
| 1777647268 | 27.78° C | 100% | 1004.9 hPa | - | - | - | - |
| 1777646368 | 28.33° C | 100% | 1004.7 hPa | - | - | - | - |
| 1777645468 | 28.33° C | 100% | 1004.5 hPa | - | - | - | - |
| 1777644567 | 27.78° C | 100% | 1004.6 hPa | - | - | - | - |
| 1777643667 | 27.22° C | 100% | 1004.4 hPa | - | - | - | - |
| 1777642767 | 27.22° C | 100% | 1004.6 hPa | - | - | - | - |
| 1777641867 | 27.22° C | 100% | 1004.5 hPa | - | - | - | - |
| 1777640967 | 26.67° C | 100% | 1004.2 hPa | - | - | - | - |
| 1777640067 | 25.56° C | 100% | 1004.4 hPa | - | - | - | - |
| 1777639167 | 25.56° C | 100% | 1004.4 hPa | - | - | - | - |
* Rain since midnight (hover to see other rain measurements)
** Current wind speed in m/s (hover to see current wind gust speed)